Waarnemingen

Advertentie
Mijn weer
Koblenz/Falkensteinkaserne, Duitsland (10516): temperatuur & dauwpunt: 19.04.2018 12:00:00 - 25.04.2018 12:00:00 (CEST)Koblenz/Falkensteinkaserne, Duitsland (10516): windsnelheid: 19.04.2018 12:00:00 - 25.04.2018 12:00:00 (CEST)Koblenz/Falkensteinkaserne, Duitsland (10516): windrichting: 19.04.2018 12:00:00 - 25.04.2018 12:00:00 (CEST)Koblenz/Falkensteinkaserne, Duitsland (10516): luchtdruk: 19.04.2018 12:00:00 - 25.04.2018 12:00:00 (CEST)Koblenz/Falkensteinkaserne, Duitsland (10516): zicht: 19.04.2018 12:00:00 - 25.04.2018 12:00:00 (CEST)
Datum & Tijd tt [°C] td [°C] ff [km/u] ff [kn] dd ppp [hPa] vv [km]
25.04.2018 12:00:00 - - - - - - -
25.04.2018 11:00:00 16,2 7,9 14 8 W 1011,6 20
25.04.2018 10:00:00 15,3 9,0 11 6 ZZW 1011,0 20
25.04.2018 09:00:00 13,5 8,2 11 6 ZW 1011,3 20
25.04.2018 08:00:00 13,3 8,0 11 6 ZW 1011,0 20
25.04.2018 07:00:00 11,9 7,6 4 2 O 1010,7 20
25.04.2018 06:00:00 11,0 7,6 7 4 N 1010,9 -
25.04.2018 05:00:00 10,7 7,2 4 2 N 1011,1 -
25.04.2018 04:00:00 9,9 7,3 4 2 N 1011,3 -
25.04.2018 03:00:00 10,7 7,6 4 2 N 1011,7 -
25.04.2018 02:00:00 12,0 7,7 7 4 ZZW 1012,4 -
25.04.2018 01:00:00 12,6 7,3 4 2 N 1013,0 -
25.04.2018 00:00:00 14,4 7,6 4 2 WZW 1013,2 -
24.04.2018 23:00:00 16,0 6,9 4 2 ZW 1013,5 -
24.04.2018 22:00:00 17,5 6,7 7 4 Z 1013,7 -
24.04.2018 21:00:00 17,6 7,4 4 2 ZW 1014,1 30
24.04.2018 20:00:00 18,9 7,2 11 6 ZW 1014,0 40
24.04.2018 19:00:00 19,6 7,0 11 6 ZW 1014,2 40
24.04.2018 18:00:00 19,8 6,9 14 8 ZW 1014,7 35
24.04.2018 17:00:00 20,0 6,2 14 8 ZW 1015,2 35
24.04.2018 16:00:00 19,9 6,3 11 6 ZZW 1015,8 40
24.04.2018 15:00:00 19,3 6,3 11 6 ZW 1016,8 40
24.04.2018 14:00:00 18,9 5,7 11 6 ZW 1017,6 40
24.04.2018 13:00:00 17,2 4,7 11 6 ZW 1018,2 40
24.04.2018 12:00:00 15,0 4,0 14 8 ZZW 1018,9 35
24.04.2018 11:00:00 14,1 5,0 11 6 WZW 1018,8 35
24.04.2018 10:00:00 12,8 6,0 11 6 ZW 1018,9 35
24.04.2018 09:00:00 11,2 6,4 11 6 ZZW 1019,0 35
24.04.2018 08:00:00 10,6 6,4 7 4 ZW 1018,8 30
24.04.2018 07:00:00 8,9 7,4 4 2 WZW 1018,4 30
24.04.2018 06:00:00 9,4 6,7 7 4 N 1018,4 -
24.04.2018 05:00:00 9,1 7,1 4 2 N 1018,8 -
24.04.2018 04:00:00 9,6 7,3 4 2 N 1018,7 -
24.04.2018 03:00:00 10,5 7,7 4 2 N 1018,6 -
24.04.2018 02:00:00 11,9 7,8 7 4 ZW 1018,6 -
24.04.2018 01:00:00 12,7 7,9 7 4 ZW 1018,3 -
24.04.2018 00:00:00 14,4 5,7 7 4 NW 1017,9 -
23.04.2018 23:00:00 14,3 6,0 4 2 N 1017,7 -
23.04.2018 22:00:00 16,1 5,9 7 4 NW 1017,1 -
23.04.2018 21:00:00 17,1 6,4 11 6 NNW 1016,5 25
23.04.2018 20:00:00 18,5 6,6 14 8 NNW 1015,9 25
23.04.2018 19:00:00 19,9 6,3 14 8 NNW 1015,2 30
23.04.2018 18:00:00 21,2 6,7 11 6 WNW 1014,8 30
23.04.2018 17:00:00 20,5 7,6 11 6 NNW 1014,7 30
23.04.2018 16:00:00 20,3 8,7 14 8 NW 1014,8 30
23.04.2018 15:00:00 20,7 9,9 14 8 NW 1015,3 30
23.04.2018 14:00:00 20,8 9,8 18 10 WNW 1015,2 35
23.04.2018 13:00:00 21,4 8,9 11 6 W 1014,9 35
23.04.2018 12:00:00 21,2 9,9 11 6 W 1015,0 35
23.04.2018 11:00:00 19,3 10,3 4 2 W 1015,2 35
23.04.2018 10:00:00 18,5 10,4 7 4 W 1015,0 35
23.04.2018 09:00:00 17,5 11,5 7 4 WZW 1014,6 30
23.04.2018 08:00:00 16,8 12,4 4 2 N 1014,2 30
23.04.2018 07:00:00 16,2 12,5 4 2 N 1013,8 30
23.04.2018 06:00:00 16,7 12,1 4 2 N 1013,4 -
23.04.2018 05:00:00 17,1 12,4 7 4 N 1013,6 -
23.04.2018 04:00:00 17,7 11,5 7 4 N 1013,2 -
23.04.2018 03:00:00 17,2 11,6 7 4 N 1012,9 -
23.04.2018 02:00:00 17,0 11,4 4 2 N 1012,8 -
23.04.2018 01:00:00 17,4 10,9 4 2 O 1012,9 -
23.04.2018 00:00:00 18,2 11,0 4 2 N 1012,8 -
22.04.2018 23:00:00 19,7 10,3 4 2 N 1012,6 -
22.04.2018 22:00:00 21,5 9,1 7 4 ZZW 1011,9 -
22.04.2018 21:00:00 22,9 8,3 7 4 ZW 1011,4 -
22.04.2018 20:00:00 24,3 8,9 11 6 WZW 1011,0 -
22.04.2018 19:00:00 25,4 10,2 7 4 WZW 1010,5 -
22.04.2018 18:00:00 26,7 8,4 14 8 WZW 1010,3 -
22.04.2018 17:00:00 27,5 8,1 14 8 WZW 1010,3 -
22.04.2018 16:00:00 27,6 8,5 11 6 ZW 1010,6 -
22.04.2018 15:00:00 27,1 9,8 7 4 ZZW 1011,4 -
22.04.2018 14:00:00 27,1 10,9 7 4 ZW 1012,0 -
22.04.2018 13:00:00 25,6 11,8 4 2 N 1013,0 -
22.04.2018 12:00:00 23,2 11,7 7 4 N 1013,9 -
22.04.2018 11:00:00 21,2 11,4 4 2 ZW 1014,7 -
22.04.2018 10:00:00 18,1 11,2 7 4 N 1014,9 -
22.04.2018 09:00:00 15,2 10,5 4 2 N 1015,3 -
22.04.2018 08:00:00 13,4 10,5 4 2 N 1015,8 -
22.04.2018 07:00:00 12,4 10,8 7 4 N 1015,7 -
22.04.2018 06:00:00 12,1 10,6 4 2 N 1015,9 -
22.04.2018 05:00:00 12,9 10,8 4 2 N 1016,2 -
22.04.2018 04:00:00 14,5 10,6 4 2 ZZW 1016,4 -
22.04.2018 03:00:00 15,6 10,9 7 4 N 1016,7 -
22.04.2018 02:00:00 15,1 10,6 4 2 N 1017,3 -
22.04.2018 01:00:00 16,1 10,7 7 4 N 1017,8 -
22.04.2018 00:00:00 16,4 10,5 4 2 N 1017,8 -
21.04.2018 23:00:00 17,6 10,7 7 4 N 1017,8 -
21.04.2018 22:00:00 18,8 10,0 4 2 N 1017,7 -
21.04.2018 21:00:00 21,9 9,1 4 2 NNW 1017,6 -
21.04.2018 20:00:00 23,7 9,4 7 4 NNW 1017,2 -
21.04.2018 19:00:00 24,9 8,7 11 6 NNW 1017,5 -
21.04.2018 18:00:00 25,4 8,2 11 6 NNW 1017,7 -
21.04.2018 17:00:00 25,7 8,1 11 6 WNW 1018,2 -
21.04.2018 16:00:00 25,9 7,7 7 4 NNW 1018,8 -
21.04.2018 15:00:00 25,5 7,9 7 4 WNW 1019,6 -
21.04.2018 14:00:00 24,3 8,3 7 4 NW 1020,2 -
21.04.2018 13:00:00 23,2 10,6 7 4 NW 1020,8 -
21.04.2018 12:00:00 21,5 11,7 7 4 WNW 1021,5 -
21.04.2018 11:00:00 19,3 11,1 4 2 NW 1021,7 -
21.04.2018 10:00:00 17,3 9,5 4 2 ZZW 1021,9 -
21.04.2018 09:00:00 15,1 10,2 4 2 N 1022,0 -
21.04.2018 08:00:00 12,9 9,9 4 2 N 1021,9 -
21.04.2018 07:00:00 11,6 9,9 4 2 ZW 1021,4 -
21.04.2018 06:00:00 11,9 9,9 4 2 ZZW 1021,0 -
21.04.2018 05:00:00 12,3 10,0 4 2 ZW 1021,2 -
21.04.2018 04:00:00 12,8 9,6 4 2 N 1021,3 -
21.04.2018 03:00:00 13,7 10,0 4 2 N 1021,2 -
21.04.2018 02:00:00 14,4 9,7 4 2 ZZW 1021,4 -
21.04.2018 01:00:00 15,1 9,9 4 2 ZW 1021,5 -
21.04.2018 00:00:00 16,2 10,1 4 2 N 1021,0 -
20.04.2018 23:00:00 16,9 9,7 4 2 N 1021,1 -
20.04.2018 22:00:00 19,4 9,4 4 2 N 1021,0 -
20.04.2018 21:00:00 21,7 7,6 4 2 N 1020,5 40
20.04.2018 20:00:00 25,6 7,1 7 4 NNW 1020,0 40
20.04.2018 19:00:00 27,3 4,8 7 4 NNW 1020,1 40
20.04.2018 18:00:00 27,4 4,6 7 4 WNW 1020,5 40
20.04.2018 17:00:00 27,4 1,8 7 4 WNW 1021,0 40
20.04.2018 16:00:00 28,0 2,0 7 4 N 1021,5 40
20.04.2018 15:00:00 26,8 3,1 7 4 WNW 1022,2 40
20.04.2018 14:00:00 26,1 1,1 7 4 N 1022,8 40
20.04.2018 13:00:00 24,4 8,8 4 2 NNW 1023,6 40
20.04.2018 12:00:00 21,2 9,4 7 4 N 1024,3 40
20.04.2018 11:00:00 18,3 8,2 4 2 N 1024,8 40
20.04.2018 10:00:00 15,6 7,0 4 2 ZZW 1025,0 40
20.04.2018 09:00:00 12,3 7,1 4 2 N 1025,3 40
20.04.2018 08:00:00 11,0 7,7 4 2 N 1025,5 40
20.04.2018 07:00:00 9,0 7,5 4 2 ZW 1025,4 40
20.04.2018 06:00:00 9,7 7,4 4 2 N 1025,3 -
20.04.2018 05:00:00 10,4 8,0 4 2 ZZW 1025,4 -
20.04.2018 04:00:00 11,1 8,2 4 2 N 1025,6 -
20.04.2018 03:00:00 11,9 8,4 4 2 N 1025,6 -
20.04.2018 02:00:00 - - - - - - -
20.04.2018 01:00:00 14,3 7,8 4 2 N 1025,8 -
20.04.2018 00:00:00 16,5 7,5 7 4 Z 1025,7 -
19.04.2018 23:00:00 17,5 7,4 4 2 Z 1025,6 -
19.04.2018 22:00:00 20,3 6,7 7 4 ZZW 1025,5 -
19.04.2018 21:00:00 22,4 4,3 7 4 ZO 1024,9 40
19.04.2018 20:00:00 26,6 1,1 7 4 ZZO 1024,4 40
19.04.2018 19:00:00 27,4 2,2 11 6 ZO 1024,5 40
19.04.2018 18:00:00 28,0 2,5 11 6 OZO 1024,8 40
19.04.2018 17:00:00 27,9 3,6 11 6 O 1025,0 40
19.04.2018 16:00:00 27,4 2,9 11 6 O 1025,8 40
19.04.2018 15:00:00 27,2 2,7 11 6 O 1026,4 40
19.04.2018 14:00:00 26,4 4,7 11 6 OZO 1027,0 35
19.04.2018 13:00:00 24,8 6,0 7 4 O 1027,5 35
19.04.2018 12:00:00 23,3 7,2 11 6 O 1028,3 35

tt = temperatuur
td = dauwpunt
ff = windsnelheid
dd = windrichting
ppp = luchtdruk
vv = zicht

Weerstations in de omgeving